This is the latest recevied weather packets stored in our database for station/object KD9NSC. If no packets are shown the sender has not sent any weather packets the latest 10 day(s).
| Time | Temp. | Humidity | Pressure | Rain* | Wind** | Luminosity | Snow |
|---|---|---|---|---|---|---|---|
| 1777933112 | 23.89° C | 51% | 1000 hPa | 0 mm | - | 12 W/m² | - |
| 1777932808 | 23.33° C | 52% | 1000.1 hPa | 0 mm | - | 15 W/m² | - |
| 1777932505 | 23.89° C | 54% | 1000.2 hPa | 0 mm | - | 10 W/m² | - |
| 1777932202 | 23.89° C | 54% | 1000.4 hPa | 0 mm | - | 11 W/m² | - |
| 1777931899 | 23.89° C | 54% | 1000.5 hPa | 0 mm | - | 19 W/m² | - |
| 1777931595 | 23.89° C | 58% | 1000.3 hPa | 0 mm | - | 36 W/m² | - |
| 1777931291 | 23.89° C | 52% | 1000.5 hPa | 0 mm | - | 27 W/m² | - |
| 1777930989 | 23.89° C | 52% | 1000.5 hPa | 0 mm | - | 29 W/m² | - |
| 1777930685 | 23.89° C | 52% | 1000.6 hPa | 0 mm | - | 31 W/m² | - |
| 1777930381 | 23.89° C | 54% | 1000.7 hPa | 0 mm | - | 26 W/m² | - |
| 1777930079 | 24.44° C | 56% | 1000.8 hPa | 0 mm | - | 35 W/m² | - |
| 1777929775 | 25° C | 47% | 1000.7 hPa | 0 mm | - | 15 W/m² | - |
| 1777929472 | 25° C | 44% | 1000.8 hPa | 0 mm | - | 27 W/m² | - |
| 1777929168 | 25.56° C | 43% | 1000.7 hPa | 0 mm | - | 22 W/m² | - |
| 1777928866 | 25.56° C | 44% | 1000.7 hPa | 0 mm | - | 41 W/m² | - |
| 1777928563 | 25.56° C | 43% | 1000.9 hPa | 0 mm | - | 87 W/m² | - |
| 1777928260 | 25.56° C | 44% | 1000.9 hPa | 0 mm | - | 29 W/m² | - |
| 1777927958 | 26.11° C | 41% | 1000.9 hPa | 0 mm | - | 41 W/m² | - |
| 1777927656 | 26.11° C | 43% | 1000.8 hPa | 0 mm | - | 42 W/m² | - |
| 1777927354 | 26.67° C | 39% | 1001 hPa | 0 mm | - | 31 W/m² | - |
| 1777927053 | 26.67° C | 39% | 1001.1 hPa | 0 mm | - | 161 W/m² | - |
| 1777926749 | 26.11° C | 39% | 1000.9 hPa | 0 mm | - | 104 W/m² | - |
| 1777926450 | 25.56° C | 41% | 1001 hPa | 0 mm | - | 33 W/m² | - |
| 1777926147 | 25.56° C | 41% | 1001 hPa | 0 mm | - | 32 W/m² | - |
| 1777925844 | 25.56° C | 44% | 1001.1 hPa | 0 mm | - | 32 W/m² | - |
* Rain latest hour (hover to see other rain measurements)
** Current wind speed in m/s (hover to see current wind gust speed)